Terug naar catalogus

TIANQI 29

ActiefCommunicatieLEO
NORAD 61195·PAYLOAD·🇨🇳 China

Gelanceerd Sep 20, 2024 vanaf Xichang Satellite Launch Center

Loading…

Volgende Passages (komende 24 uur)

TLE

VersSource: Space-Track

Epoch: Sep 14, 2026, 14:26 UTC

1 61195U 24170A   26257.60199194  .00000018  00000-0  10227-3 0  9991
2 61195  44.8562  98.8868 0006180 158.3315 201.7778 13.97725830101370

Volg TIANQI 29 in realtime met AllMySat

Download on the App Store